Time,TemperatureF,DewpointF,PressureIn,WindDirection,WindDirectionDegrees,WindSpeedMPH,WindSpeedGustMPH,Humidity,HourlyPrecipIn,Conditions,Clouds,dailyrainin,SoftwareType,DateUTC
2013-10-25 04:45:00,59.4,56.2,30.06,WNW,284,0.0,0.0,89,0.00,,,0.00,Wunderground v.1.15,2013-10-25 11:45:00,
2013-10-25 04:50:00,59.5,56.3,30.06,WNW,284,0.0,0.0,89,0.00,,,0.00,Wunderground v.1.15,2013-10-25 11:50:00,
2013-10-25 04:55:00,59.5,56.3,30.06,WNW,284,0.0,0.0,89,0.00,,,0.00,Wunderground v.1.15,2013-10-25 11:55:00,
2013-10-25 05:00:00,59.6,56.4,30.06,WNW,284,0.0,0.0,89,0.00,,,0.00,Wunderground v.1.15,2013-10-25 12:00:00,
2013-10-25 05:05:00,59.7,56.5,30.06,WNW,284,0.0,0.0,89,0.00,,,0.00,Wunderground v.1.15,2013-10-25 12:05:00,
2013-10-25 05:10:00,59.7,56.5,30.06,WNW,284,0.0,0.0,89,0.00,,,0.00,Wunderground v.1.15,2013-10-25 12:10:00,
2013-10-25 05:20:00,59.7,56.5,30.07,WNW,284,0.0,0.0,89,0.00,,,0.00,Wunderground v.1.15,2013-10-25 12:20:00,
2013-10-25 05:25:00,59.8,56.6,30.07,WNW,284,0.0,0.0,89,0.00,,,0.00,Wunderground v.1.15,2013-10-25 12:25:00,
2013-10-25 05:30:00,59.8,56.6,30.07,WNW,284,0.0,0.0,89,0.00,,,0.00,Wunderground v.1.15,2013-10-25 12:30:00,
2013-10-25 05:35:00,59.8,56.6,30.07,WNW,284,0.0,0.0,89,0.00,,,0.00,Wunderground v.1.15,2013-10-25 12:35:00,
2013-10-25 05:45:00,59.8,56.6,30.07,WNW,284,0.0,0.0,89,0.00,,,0.00,Wunderground v.1.15,2013-10-25 12:45:00,
2013-10-25 05:50:00,59.9,56.6,30.07,WNW,284,0.0,0.0,89,0.00,,,0.00,Wunderground v.1.15,2013-10-25 12:50:00,
2013-10-25 05:55:00,60.0,56.4,30.07,WNW,284,0.0,0.0,88,0.00,,,0.00,Wunderground v.1.15,2013-10-25 12:55:00,
2013-10-25 06:00:00,60.0,56.4,30.07,WNW,284,0.0,0.0,88,0.00,,,0.00,Wunderground v.1.15,2013-10-25 13:00:00,
2013-10-25 06:05:00,60.1,56.5,30.07,WNW,284,0.0,0.0,88,0.00,,,0.00,Wunderground v.1.15,2013-10-25 13:05:00,
2013-10-25 06:10:00,60.1,56.5,30.07,WNW,284,0.0,0.0,88,0.00,,,0.00,Wunderground v.1.15,2013-10-25 13:10:00,
2013-10-25 06:20:00,60.2,56.6,30.07,WNW,284,0.0,0.0,88,0.00,,,0.00,Wunderground v.1.15,2013-10-25 13:20:00,
2013-10-25 06:25:00,60.2,56.6,30.07,WNW,284,0.0,0.0,88,0.00,,,0.00,Wunderground v.1.15,2013-10-25 13:25:00,
2013-10-25 06:30:00,60.2,56.6,30.08,WNW,284,0.0,0.0,88,0.00,,,0.00,Wunderground v.1.15,2013-10-25 13:30:00,
2013-10-25 06:35:00,60.3,56.7,30.08,WNW,284,0.0,0.0,88,0.00,,,0.00,Wunderground v.1.15,2013-10-25 13:35:00,
2013-10-25 06:40:00,60.3,56.7,30.08,WNW,284,0.0,0.0,88,0.00,,,0.00,Wunderground v.1.15,2013-10-25 13:40:00,
2013-10-25 06:45:00,60.3,56.7,30.08,WNW,284,0.0,0.0,88,0.00,,,0.00,Wunderground v.1.15,2013-10-25 13:45:00,
2013-10-25 06:50:00,60.3,56.7,30.08,WNW,284,0.0,0.0,88,0.00,,,0.00,Wunderground v.1.15,2013-10-25 13:50:00,
2013-10-25 06:55:00,60.3,56.7,30.08,WNW,284,0.0,0.0,88,0.00,,,0.00,Wunderground v.1.15,2013-10-25 13:55:00,
2013-10-25 07:00:00,60.4,56.8,30.08,WNW,284,0.0,0.0,88,0.00,,,0.00,Wunderground v.1.15,2013-10-25 14:00:00,
2013-10-25 07:10:00,60.5,56.6,30.08,WNW,284,0.0,1.0,87,0.00,,,0.00,Wunderground v.1.15,2013-10-25 14:10:00,
2013-10-25 07:16:00,60.5,56.6,30.08,WNW,284,1.0,1.0,87,0.00,,,0.00,Wunderground v.1.15,2013-10-25 14:16:00,
2013-10-25 07:25:00,60.8,56.6,30.08,WNW,284,0.0,1.0,86,0.00,,,0.00,Wunderground v.1.15,2013-10-25 14:25:00,
2013-10-25 07:30:00,60.9,56.7,30.08,WNW,284,0.0,0.0,86,0.00,,,0.00,Wunderground v.1.15,2013-10-25 14:30:00,
2013-10-25 07:35:00,60.9,56.7,30.08,WNW,284,0.0,0.0,86,0.00,,,0.00,Wunderground v.1.15,2013-10-25 14:35:00,
2013-10-25 07:40:00,61.0,56.8,30.08,WNW,284,0.0,0.0,86,0.00,,,0.00,Wunderground v.1.15,2013-10-25 14:40:00,
2013-10-25 07:45:00,61.1,56.9,30.08,WNW,284,0.0,0.0,86,0.00,,,0.00,Wunderground v.1.15,2013-10-25 14:45:00,
2013-10-25 07:50:00,61.1,56.9,30.08,WNW,284,0.0,0.0,86,0.00,,,0.00,Wunderground v.1.15,2013-10-25 14:50:00,
2013-10-25 08:00:00,61.2,56.7,30.09,NE,45,1.0,1.0,85,0.00,,,0.00,Wunderground v.1.15,2013-10-25 15:00:00,
2013-10-25 08:05:00,61.2,56.7,30.09,NE,45,0.0,1.0,85,0.00,,,0.00,Wunderground v.1.15,2013-10-25 15:05:00,
2013-10-25 08:10:00,61.3,56.8,30.09,NE,45,0.0,0.0,85,0.00,,,0.00,Wunderground v.1.15,2013-10-25 15:10:00,
2013-10-25 08:20:00,61.4,56.8,30.09,NNW,338,0.0,0.0,85,0.00,,,0.00,Wunderground v.1.15,2013-10-25 15:20:00,
2013-10-25 08:30:00,61.5,56.9,30.09,NNW,338,0.0,1.0,85,0.00,,,0.00,Wunderground v.1.15,2013-10-25 15:30:00,
2013-10-25 08:35:00,61.5,56.6,30.10,West,262,1.0,1.0,84,0.00,,,0.00,Wunderground v.1.15,2013-10-25 15:35:00,
2013-10-25 08:40:00,61.6,56.7,30.10,West,262,0.0,1.0,84,0.00,,,0.00,Wunderground v.1.15,2013-10-25 15:40:00,
2013-10-25 08:45:00,61.7,56.8,30.10,West,262,1.0,2.0,84,0.00,,,0.00,Wunderground v.1.15,2013-10-25 15:45:00,
2013-10-25 08:50:00,61.8,56.6,30.10,WNW,298,2.0,2.0,83,0.00,,,0.00,Wunderground v.1.15,2013-10-25 15:50:00,
2013-10-25 08:55:00,61.9,56.7,30.10,WNW,298,1.0,2.0,83,0.00,,,0.00,Wunderground v.1.15,2013-10-25 15:55:00,
2013-10-25 09:05:00,62.0,56.8,30.11,WNW,298,0.0,0.0,83,0.00,,,0.00,Wunderground v.1.15,2013-10-25 16:05:00,
2013-10-25 09:10:00,62.2,57.0,30.11,NW,306,0.0,1.0,83,0.00,,,0.00,Wunderground v.1.15,2013-10-25 16:10:00,
2013-10-25 09:15:00,62.2,57.0,30.11,NNW,333,1.0,1.0,83,0.00,,,0.00,Wunderground v.1.15,2013-10-25 16:15:00,
2013-10-25 09:20:00,62.3,57.1,30.11,NNW,333,1.0,1.0,83,0.00,,,0.00,Wunderground v.1.15,2013-10-25 16:20:00,
2013-10-25 09:25:00,62.4,56.8,30.11,NNW,333,1.0,1.0,82,0.00,,,0.00,Wunderground v.1.15,2013-10-25 16:25:00,
2013-10-25 09:30:00,62.4,56.8,30.11,NW,305,1.0,2.0,82,0.00,,,0.00,Wunderground v.1.15,2013-10-25 16:30:00,
2013-10-25 09:35:00,62.4,56.8,30.11,NW,305,1.0,2.0,82,0.00,,,0.00,Wunderground v.1.15,2013-10-25 16:35:00,
2013-10-25 09:40:00,62.6,57.0,30.11,NW,305,1.0,1.0,82,0.00,,,0.00,Wunderground v.1.15,2013-10-25 16:40:00,
2013-10-25 16:10:00,68.1,59.5,30.00,SSW,211,4.0,4.0,74,0.00,,,0.00,Wunderground v.1.15,2013-10-25 23:10:00,
2013-10-25 16:16:00,67.9,59.7,30.00,SW,225,3.0,4.0,75,0.00,,,0.00,Wunderground v.1.15,2013-10-25 23:16:00,
2013-10-25 16:20:00,68.1,59.5,30.00,SW,224,3.0,3.0,74,0.00,,,0.00,Wunderground v.1.15,2013-10-25 23:20:00,
2013-10-25 16:25:00,68.4,59.8,30.00,SW,230,3.0,3.0,74,0.00,,,0.00,Wunderground v.1.15,2013-10-25 23:25:00,
2013-10-25 16:30:00,68.5,59.9,30.00,SW,236,3.0,3.0,74,0.00,,,0.00,Wunderground v.1.15,2013-10-25 23:30:00,
2013-10-25 16:35:00,68.5,59.9,30.00,South,184,3.0,3.0,74,0.00,,,0.00,Wunderground v.1.15,2013-10-25 23:35:00,
2013-10-25 16:40:00,68.5,59.9,29.99,SSW,194,3.0,3.0,74,0.00,,,0.00,Wunderground v.1.15,2013-10-25 23:40:00,
2013-10-25 16:45:00,68.7,60.1,29.99,WSW,245,3.0,3.0,74,0.00,,,0.00,Wunderground v.1.15,2013-10-25 23:45:00,
2013-10-25 16:50:00,68.9,59.9,29.99,SW,215,3.0,5.0,73,0.00,,,0.00,Wunderground v.1.15,2013-10-25 23:50:00,
2013-10-25 16:55:00,68.8,60.2,29.99,SW,216,4.0,5.0,74,0.00,,,0.00,Wunderground v.1.15,2013-10-25 23:55:00,
2013-10-25 17:00:00,68.7,60.1,29.99,SW,226,3.0,3.0,74,0.00,,,0.00,Wunderground v.1.15,2013-10-26 00:00:00,
2013-10-25 17:05:00,68.6,60.0,29.99,SW,217,2.0,3.0,74,0.00,,,0.00,Wunderground v.1.15,2013-10-26 00:05:00,
2013-10-25 17:10:00,68.5,59.9,29.99,SW,218,2.0,2.0,74,0.00,,,0.00,Wunderground v.1.15,2013-10-26 00:10:00,
2013-10-25 17:16:00,68.4,60.2,29.99,SW,218,2.0,3.0,75,0.00,,,0.00,Wunderground v.1.15,2013-10-26 00:16:00,
2013-10-25 17:20:00,68.3,60.1,29.99,SW,218,2.0,2.0,75,0.00,,,0.00,Wunderground v.1.15,2013-10-26 00:20:00,
2013-10-25 17:25:00,68.3,60.4,29.99,SW,218,2.0,2.0,76,0.00,,,0.00,Wunderground v.1.15,2013-10-26 00:25:00,
2013-10-25 17:30:00,68.3,60.1,29.99,West,269,1.0,4.0,75,0.00,,,0.00,Wunderground v.1.15,2013-10-26 00:30:00,
2013-10-25 17:35:00,68.3,59.7,29.99,WNW,302,2.0,5.0,74,0.00,,,0.00,Wunderground v.1.15,2013-10-26 00:35:00,
2013-10-25 17:40:00,68.1,59.5,29.99,NW,317,4.0,4.0,74,0.00,,,0.00,Wunderground v.1.15,2013-10-26 00:40:00,
2013-10-25 17:45:00,67.7,59.5,29.99,WNW,301,4.0,5.0,75,0.00,,,0.00,Wunderground v.1.15,2013-10-26 00:45:00,
2013-10-25 17:50:00,67.4,59.2,30.00,WNW,298,4.0,4.0,75,0.00,,,0.00,Wunderground v.1.15,2013-10-26 00:50:00,
2013-10-25 17:55:00,67.1,59.3,30.00,WNW,297,3.0,4.0,76,0.00,,,0.00,Wunderground v.1.15,2013-10-26 00:55:00,
2013-10-25 18:05:00,66.5,59.1,30.00,WNW,302,4.0,5.0,77,0.00,,,0.00,Wunderground v.1.15,2013-10-26 01:05:00,
2013-10-25 18:10:00,66.2,58.8,30.00,NW,307,4.0,4.0,77,0.00,,,0.00,Wunderground v.1.15,2013-10-26 01:10:00,
2013-10-25 18:20:00,65.6,58.6,30.01,NW,321,3.0,4.0,78,0.00,,,0.00,Wunderground v.1.15,2013-10-26 01:20:00,
2013-10-25 18:25:00,65.4,58.7,30.01,NW,313,3.0,4.0,79,0.00,,,0.00,Wunderground v.1.15,2013-10-26 01:25:00,
2013-10-25 18:30:00,65.1,58.8,30.01,NW,315,3.0,3.0,80,0.00,,,0.00,Wunderground v.1.15,2013-10-26 01:30:00,
2013-10-25 18:35:00,64.8,58.5,30.01,WNW,299,3.0,6.0,80,0.00,,,0.00,Wunderground v.1.15,2013-10-26 01:35:00,
2013-10-25 18:40:00,64.5,58.5,30.01,NW,324,3.0,3.0,81,0.00,,,0.00,Wunderground v.1.15,2013-10-26 01:40:00,
2013-10-25 18:45:00,64.2,58.2,30.01,WNW,283,3.0,6.0,81,0.00,,,0.00,Wunderground v.1.15,2013-10-26 01:45:00,
2013-10-25 18:50:00,63.9,58.3,30.01,WNW,298,4.0,4.0,82,0.00,,,0.00,Wunderground v.1.15,2013-10-26 01:50:00,
2013-10-25 18:55:00,63.8,58.2,30.02,WNW,298,3.0,4.0,82,0.00,,,0.00,Wunderground v.1.15,2013-10-26 01:55:00,
2013-10-25 19:05:00,63.5,58.2,30.02,WNW,298,1.0,2.0,83,0.00,,,0.00,Wunderground v.1.15,2013-10-26 02:05:00,
2013-10-25 19:10:00,63.4,58.1,30.02,WNW,298,1.0,2.0,83,0.00,,,0.00,Wunderground v.1.15,2013-10-26 02:10:00,
2013-10-25 19:20:00,63.1,57.9,30.01,WNW,298,1.0,1.0,83,0.00,,,0.00,Wunderground v.1.15,2013-10-26 02:20:00,
2013-10-25 19:25:00,62.9,57.7,30.01,WNW,302,1.0,1.0,83,0.00,,,0.00,Wunderground v.1.15,2013-10-26 02:25:00,
2013-10-25 19:30:00,62.8,57.9,30.02,WNW,302,1.0,1.0,84,0.00,,,0.00,Wunderground v.1.15,2013-10-26 02:30:00,
2013-10-25 19:35:00,62.7,57.8,30.02,WNW,302,1.0,2.0,84,0.00,,,0.00,Wunderground v.1.15,2013-10-26 02:35:00,
2013-10-25 19:40:00,62.6,57.7,30.02,NW,324,2.0,2.0,84,0.00,,,0.00,Wunderground v.1.15,2013-10-26 02:40:00,
2013-10-25 19:45:00,62.6,57.7,30.02,NW,319,2.0,2.0,84,0.00,,,0.00,Wunderground v.1.15,2013-10-26 02:45:00,
2013-10-25 19:51:00,62.5,57.6,30.02,NW,319,1.0,1.0,84,0.00,,,0.00,Wunderground v.1.15,2013-10-26 02:51:00,
2013-10-25 19:55:00,62.4,57.8,30.02,NW,319,0.0,2.0,85,0.00,,,0.00,Wunderground v.1.15,2013-10-26 02:55:00,
2013-10-25 20:00:00,62.3,57.7,30.02,NW,319,1.0,1.0,85,0.00,,,0.00,Wunderground v.1.15,2013-10-26 03:00:00,
2013-10-25 20:05:00,62.3,57.7,30.02,NW,319,1.0,1.0,85,0.00,,,0.00,Wunderground v.1.15,2013-10-26 03:05:00,
2013-10-25 20:10:00,62.2,57.6,30.02,NW,319,1.0,3.0,85,0.00,,,0.00,Wunderground v.1.15,2013-10-26 03:10:00,
2013-10-25 20:16:00,62.2,57.6,30.02,NW,319,1.0,3.0,85,0.00,,,0.00,Wunderground v.1.15,2013-10-26 03:16:00,
2013-10-25 20:20:00,62.2,57.6,30.03,NW,319,1.0,2.0,85,0.00,,,0.00,Wunderground v.1.15,2013-10-26 03:20:00,
2013-10-25 20:25:00,62.1,57.5,30.03,NW,319,1.0,2.0,85,0.00,,,0.00,Wunderground v.1.15,2013-10-26 03:25:00,
2013-10-25 20:30:00,62.1,57.5,30.03,NW,319,1.0,1.0,85,0.00,,,0.00,Wunderground v.1.15,2013-10-26 03:30:00,
2013-10-25 20:35:00,62.0,57.4,30.03,NW,319,0.0,1.0,85,0.00,,,0.00,Wunderground v.1.15,2013-10-26 03:35:00,
2013-10-25 20:40:00,62.0,57.8,30.03,NW,311,1.0,1.0,86,0.00,,,0.00,Wunderground v.1.15,2013-10-26 03:40:00,
2013-10-25 20:45:00,61.9,57.7,30.03,NW,311,1.0,1.0,86,0.00,,,0.00,Wunderground v.1.15,2013-10-26 03:45:00,
2013-10-25 20:50:00,61.8,57.6,30.03,NW,311,1.0,1.0,86,0.00,,,0.00,Wunderground v.1.15,2013-10-26 03:50:00,
2013-10-25 20:55:00,61.8,57.6,30.03,NW,311,1.0,1.0,86,0.00,,,0.00,Wunderground v.1.15,2013-10-26 03:55:00,
2013-10-25 21:00:00,61.7,57.5,30.03,NW,311,0.0,0.0,86,0.00,,,0.00,Wunderground v.1.15,2013-10-26 04:00:00,
2013-10-25 21:05:00,61.6,57.4,30.04,NW,311,0.0,0.0,86,0.00,,,0.00,Wunderground v.1.15,2013-10-26 04:05:00,
2013-10-25 21:10:00,61.5,57.3,30.03,NW,311,0.0,0.0,86,0.00,,,0.00,Wunderground v.1.15,2013-10-26 04:10:00,
2013-10-25 21:20:00,61.2,57.0,30.04,NW,311,0.0,3.0,86,0.00,,,0.00,Wunderground v.1.15,2013-10-26 04:20:00,
2013-10-25 21:30:00,61.2,57.3,30.04,NW,311,0.0,0.0,87,0.00,,,0.00,Wunderground v.1.15,2013-10-26 04:30:00,
2013-10-25 21:35:00,61.1,57.2,30.04,NW,311,0.0,0.0,87,0.00,,,0.00,Wunderground v.1.15,2013-10-26 04:35:00,
2013-10-25 21:45:00,60.7,56.8,30.04,NW,311,0.0,0.0,87,0.00,,,0.00,Wunderground v.1.15,2013-10-26 04:45:00,
2013-10-25 21:50:00,60.6,56.7,30.03,NW,311,0.0,0.0,87,0.00,,,0.00,Wunderground v.1.15,2013-10-26 04:50:00,
2013-10-25 21:55:00,60.4,56.5,30.03,NW,311,0.0,0.0,87,0.00,,,0.00,Wunderground v.1.15,2013-10-26 04:55:00,
2013-10-25 22:05:00,60.0,56.1,30.04,NW,311,0.0,0.0,87,0.00,,,0.00,Wunderground v.1.15,2013-10-26 05:05:00,
2013-10-25 22:10:00,59.8,55.9,30.04,NW,311,0.0,0.0,87,0.00,,,0.00,Wunderground v.1.15,2013-10-26 05:10:00,
2013-10-25 22:20:00,59.8,56.2,30.05,NW,311,0.0,0.0,88,0.00,,,0.00,Wunderground v.1.15,2013-10-26 05:20:00,
2013-10-25 22:25:00,60.0,56.4,30.05,NW,311,0.0,0.0,88,0.00,,,0.00,Wunderground v.1.15,2013-10-26 05:25:00,
2013-10-25 22:30:00,60.1,56.5,30.05,NW,311,0.0,0.0,88,0.00,,,0.00,Wunderground v.1.15,2013-10-26 05:30:00,
2013-10-25 22:35:00,60.3,56.7,30.05,NW,311,0.0,1.0,88,0.00,,,0.00,Wunderground v.1.15,2013-10-26 05:35:00,
2013-10-25 22:40:00,60.5,56.9,30.05,NW,311,0.0,0.0,88,0.00,,,0.00,Wunderground v.1.15,2013-10-26 05:40:00,
2013-10-25 22:45:00,60.5,56.9,30.05,NW,311,0.0,1.0,88,0.00,,,0.00,Wunderground v.1.15,2013-10-26 05:45:00,
2013-10-25 22:50:00,60.5,56.9,30.05,NW,311,0.0,0.0,88,0.00,,,0.00,Wunderground v.1.15,2013-10-26 05:50:00,
2013-10-25 22:55:00,60.5,56.9,30.05,NW,311,0.0,0.0,88,0.00,,,0.00,Wunderground v.1.15,2013-10-26 05:55:00,
2013-10-25 23:00:00,60.5,56.9,30.05,NW,311,0.0,0.0,88,0.00,,,0.00,Wunderground v.1.15,2013-10-26 06:00:00,
2013-10-25 23:10:00,60.6,57.0,30.06,WNW,296,2.0,2.0,88,0.00,,,0.00,Wunderground v.1.15,2013-10-26 06:10:00,
2013-10-25 23:20:00,60.8,57.2,30.06,NW,311,2.0,2.0,88,0.00,,,0.00,Wunderground v.1.15,2013-10-26 06:20:00,